Weather in Chkalovo

Ukraine / Kherson District     47°03′56″N   33°12′26″E
temp.,
°C
wind,
m/s
gust,
m/s
humid.,
%
clouds,
%
prec.,
mm/h
press.,
hPa
HPBL,
m
23 april, fri
fri2300:00+8s49900 0.0 1021191
03:00+7s4119312 0.0 1021227
06:00+7s51290100 0.0 1020257
09:00+13ssw71166100 0.0 1020556
12:00+16ssw795194 0.0 10191280
15:00+15ssw91252100 0.0 10181413
18:00+14ssw6961100 0.1 10171009
21:00+10w3789100 0.7 1017334
24 april, sat
sat2400:00+7nnw5890100 0.7 1018382
03:00+5nw48940 0.9 1019263
06:00+4w38940 0.0 1020195
09:00+9wnw57610 0.0 1021682
12:00+13wnw79385 0.0 10212140
15:00+13wnw101142100 0.0 10212512
18:00+11nw7104526 0.0 10221865
21:00+7nw33505 0.0 102341
25 april, sun
sun2500:00+5nw22520 0.0 102411
03:00+4wnw01520 0.0 102310
06:00+4sse11530 0.0 102310
09:00+10s23415 0.0 1022501
12:00+13s32334 0.0 10211697
15:00+14sw233395 0.0 10192159
18:00+14sse334098 0.0 10181017
21:00+9ssw4661100 0.0 1019119
26 april, mon
mon2600:00+6w225964 0.0 101826
03:00+8wnw2358100 0.0 101786
06:00+6w226559 0.0 101613
09:00+9wnw4571100 0.0 1016923
12:00+5nnw5690100 0.6 1017717
15:00+10nnw356188 0.6 10171313
18:00+11wnw364055 0.1 10161987
21:00+7nw335719 0.1 101720
27 april, tue
tue2700:00+5w22665 0.0 101716
03:00+5sw227097 0.0 101717
06:00+5wsw1180100 0.0 101710
09:00+6wsw2389100 2.3 1017470
12:00+6wnw2390100 3.5 1018809
15:00+6w0289100 3.6 1017409
18:00+6n228669 0.0 1018357
21:00+4se229229 0.0 101810